Starlink 33836

operational
NORAD ID: 63642 Int'l Des: 2025-083 Owner: SPXS Country: US Constellation: starlink
LEOCIRCULAR

About Starlink 33836

Description loading...

Live Position

Loading 3D Globe...

Upcoming Passes

Altitude History

Altitude vs Time

uPlot chart will show altitude changes over time

Two-Line Element Set

1 63642U 25083J 25259.30281575 .00044386 00000-0 16104-2 0 9992
2 63642 43.0024 270.3135 0000970 270.7653 89.3088 15.27629237 23390
Epoch: Sep 16, 2025 • Age: 26 hours

Current Status

Altitude 494.2 km
Velocity 7.62 km/s
Sub-Earth Point -40.23°S, 10.02°E
Launch Date Apr 25, 2025
Age 0.3 years
Type internet

Technical Details

Classification Payload
Mass 575.00 kg
Dry Mass 530.00 kg
Total Mass 575.00 kg
Length 0.30 m
Diameter 4.10 m
Span 29.00 m
Shape Box + pan
Manufacturer SPXS
Bus Type Starlink V2MO
Phase Status In Orbit
Owner/State SPXS/US

Large Constellations

Loading constellations...